TimeEST,TemperatureF,Dew PointF,Humidity,Sea Level PressureIn,VisibilityMPH,Wind Direction,Wind SpeedMPH,Gust SpeedMPH,PrecipitationIn,Events,Conditions,WindDirDegrees,DateUTC
12:53 AM,30.0,24.1,79,29.94,7.0,North,6.9,-,N/A,,Clear,350,2013-02-24 05:53:00
1:53 AM,26.1,21.9,84,29.96,6.0,Calm,Calm,-,N/A,,Clear,0,2013-02-24 06:53:00
2:53 AM,24.1,19.9,84,29.98,6.0,Calm,Calm,-,N/A,,Clear,0,2013-02-24 07:53:00
3:51 AM,24.8,21.2,86,29.96,5.0,Calm,Calm,-,N/A,,Mostly Cloudy,0,2013-02-24 08:51:00
3:53 AM,24.1,21.0,88,29.98,5.0,Calm,Calm,-,N/A,,Mostly Cloudy,0,2013-02-24 08:53:00
4:53 AM,28.0,21.9,78,29.98,8.0,WNW,3.5,-,N/A,,Overcast,300,2013-02-24 09:53:00
5:53 AM,28.0,21.9,78,30.01,7.0,West,4.6,-,N/A,,Overcast,280,2013-02-24 10:53:00
6:53 AM,28.0,21.0,75,30.02,8.0,NW,9.2,-,N/A,,Overcast,320,2013-02-24 11:53:00
7:53 AM,28.0,19.9,72,30.06,8.0,WNW,8.1,-,N/A,,Overcast,300,2013-02-24 12:53:00
8:53 AM,28.0,21.0,75,30.08,7.0,NW,8.1,-,N/A,,Overcast,310,2013-02-24 13:53:00
9:53 AM,28.0,19.9,72,30.10,9.0,WNW,6.9,17.3,N/A,,Overcast,300,2013-02-24 14:53:00
10:53 AM,28.9,19.0,67,30.11,10.0,WNW,8.1,-,N/A,,Overcast,300,2013-02-24 15:53:00
11:53 AM,30.0,19.9,66,30.12,10.0,NW,11.5,-,N/A,,Overcast,310,2013-02-24 16:53:00
12:53 PM,30.9,19.0,61,30.12,10.0,West,9.2,-,N/A,,Overcast,280,2013-02-24 17:53:00
1:22 PM,30.2,17.6,60,30.09,10.0,NW,13.8,-,N/A,,Overcast,320,2013-02-24 18:22:00
1:53 PM,30.9,19.0,61,30.12,10.0,WNW,9.2,16.1,N/A,,Overcast,300,2013-02-24 18:53:00
2:19 PM,33.8,19.4,56,30.09,10.0,WNW,11.5,-,N/A,,Overcast,290,2013-02-24 19:19:00
2:53 PM,32.0,18.0,56,30.13,10.0,West,10.4,-,N/A,,Overcast,280,2013-02-24 19:53:00
3:53 PM,33.1,19.0,56,30.13,10.0,NW,5.8,-,N/A,,Overcast,310,2013-02-24 20:53:00
4:53 PM,33.1,19.0,56,30.14,10.0,West,10.4,-,N/A,,Overcast,280,2013-02-24 21:53:00
5:53 PM,32.0,18.0,56,30.16,10.0,West,5.8,-,N/A,,Overcast,280,2013-02-24 22:53:00
6:53 PM,30.9,19.0,61,30.17,10.0,Calm,Calm,-,N/A,,Overcast,0,2013-02-24 23:53:00
7:53 PM,30.0,21.0,69,30.18,10.0,Calm,Calm,-,N/A,,Overcast,0,2013-02-25 00:53:00
8:53 PM,28.9,19.9,69,30.18,10.0,Calm,Calm,-,N/A,,Overcast,0,2013-02-25 01:53:00
9:53 PM,28.0,21.0,75,30.19,9.0,South,3.5,-,N/A,,Overcast,190,2013-02-25 02:53:00
10:53 PM,28.9,21.9,75,30.19,8.0,Calm,Calm,-,N/A,,Overcast,0,2013-02-25 03:53:00
11:53 PM,28.9,21.9,75,30.19,9.0,Calm,Calm,-,N/A,,Overcast,0,2013-02-25 04:53:00